Flag for Canada Weather past 2 weeks in Drummondville, Quebec, Canada

Now
0 °F

Frigid.


Feels Like: -18 °F
Forecast: -12 / 3 °F
Wind: 13 mph from Southwest

Location: Nicolet

Current Time: Jan 31, 2015 at 1:38:24 PM

Latest Report: Jan 31, 2015 at 1:00 PM


Visibility: N/A

Pressure: 30.13 "Hg

Humidity: 55%

Dew point: -12 °F

Location of DrummondvilleLocation

Historic Weather in Drummondville — Graph

°F

Drummondville temperature yesterday

Maximum temperature yesterday: 27 °F (at 4:00 AM)
Minimum temperature yesterday: 3 °F (at 11:00 PM)
Average temperature yesterday: 20 °F

Past Weeks' High & Low Weather Summary

 TemperatureHumidityPressure
High33 °F (Jan 19, 12:00 PM)100% (Jan 19, 5:00 AM)30.44 "Hg (Jan 19, 5:00 AM)
Low-16 °F (Jan 26, 7:00 AM)36% (Jan 28, 4:00 PM)29.23 "Hg (Jan 25, 12:00 AM)
Average9 °F72%29.98 "Hg
* Reported Jan 16 12:00 Noon — Jan 31 12:00 Noon, Drummondville, Weather by CustomWeather, © 2014

Note: Actual official high and low records may vary slightly from our data, if they occured in-between our weather recording intervals... More about our weather records

Advertising

Drummondville weather history for previous 24 hours

 ConditionsComfort  
Time TempWeatherWind HumidityBarometerVisibility
12:00 PM
Jan 31
-2 °FFrigid.12 mph59%30.15 "HgN/A
11:00 AM-1 °FFrigid.8 mph52%30.17 "HgN/A
10:00 AM-5 °FFrigid.6 mph57%30.19 "HgN/A
9:00 AM-7 °FFrigid.8 mph60%30.19 "HgN/A
8:00 AM-7 °FFrigid.7 mph60%30.19 "HgN/A
7:00 AM-8 °FFrigid.7 mph64%30.18 "HgN/A
6:00 AM-7 °FFrigid.6 mph64%30.16 "HgN/A
5:00 AM-6 °FFrigid.6 mph64%30.15 "HgN/A
4:00 AM-5 °FFrigid.8 mph63%30.14 "HgN/A
3:00 AM-3 °FFrigid.7 mph62%30.14 "HgN/A
2:00 AM-2 °FFrigid.8 mph62%30.14 "HgN/A
1:00 AM0 °FFrigid.7 mph62%30.12 "HgN/A
12:00 AM1 °FFrigid.8 mph63%30.12 "HgN/A
11:00 PM
Jan 30
3 °FFrigid.10 mph61%30.11 "HgN/A
10:00 PM5 °FFrigid.12 mph62%30.09 "HgN/A
9:00 PM8 °FFrigid.9 mph62%30.08 "HgN/A
8:00 PM10 °FFrigid.10 mph64%30.06 "HgN/A
7:00 PM11 °FCold.10 mph64%30.04 "HgN/A
6:00 PM13 °FCold.10 mph66%30.01 "HgN/A
5:00 PM15 °FCold.12 mph66%29.98 "HgN/A
4:00 PM17 °FCold.8 mph68%29.95 "HgN/A
3:00 PM17 °FCold.9 mph68%29.91 "HgN/A
2:00 PM18 °FCold.9 mph78%29.88 "HgN/A
1:00 PM20 °FCold.12 mph78%29.86 "HgN/A
Weather by CustomWeather, © 2014

See weather overviewHow to use our weather pages